CALSPHERE 1 1 00900U 64063C 26127.81900272 .00000641 00000+0 64291-3 0 9990 2 00900 90.2226 70.8191 0028452 56.3071 335.6220 13.76576695 65873 CALSPHERE 2 1 00902U 64063E 26127.87095883 .00000049 00000+0 60903-4 0 9990 2 00902 90.2358 74.8253 0018259 350.9513 69.1688 13.52897255850817 LCS 1 1 01361U 65034C 26127.78061139 .00000009 00000+0 31638-4 0 9995 2 01361 32.1424 272.9698 0013000 337.7555 22.2378 9.89310242205886 TEMPSAT 1 1 01512U 65065E 26127.78465692 .00000032 00000+0 45992-4 0 9993 2 01512 90.0010 212.5860 0069577 3.8208 121.2227 13.33592128954664 CALSPHERE 4A 1 01520U 65065H 26127.73862307 .00000106 00000+0 18635-3 0 9996 2 01520 89.8961 122.8902 0068404 216.3582 317.9908 13.36270561957309 OPS 5712 (P/L 160) 1 02826U 67053A 26127.83198125 .00005396 00000+0 77199-3 0 9992 2 02826 69.9153 137.1609 0001933 251.3490 108.7448 14.77153390 60277 OPS 5712 (P/L 153) 1 02874U 67053H 26127.59240395 .00000009 00000+0 44997-4 0 9992 2 02874 69.9740 202.3168 0009983 254.0609 105.9397 13.96822460 1124 RIGIDSPHERE 2 (LCS 4) 1 05398U 71067E 26127.89749890 .00000541 00000+0 16989-3 0 9993 2 05398 87.6235 350.0022 0060372 8.7939 351.4302 14.37824296868099 COSMOS 2493 (SKRL-756 1) 1 39490U 13078A 26127.84814403 .00002161 00000+0 16286-3 0 9999 2 39490 82.4111 300.6495 0013441 26.5935 333.5977 15.01947421671908 COSMOS 2494 (SKRL-756 2) 1 39491U 13078B 26127.85164023 .00003258 00000+0 22952-3 0 9992 2 39491 82.4098 290.2006 0015960 347.1321 12.9495 15.04617985672742